Simultaneous Nadir Overpasses (SNOs) Predictions

Prediction of SNOs between FY3D and NOAA-19 Satellite Orbit:

Table of predicted SNOs for the next 14.0 days since TLE Epoch: 8/14/2021
Index Date (FY3D) Time (FY3D) Lat,Lon (FY3D) SZA (FY3D ) Date (NOAA-19) Time (NOAA-19) Lat,Lon (NOAA-19) SZA (NOAA-19 ) Distance(km) Time Diff (sec)
1 08/27/2021 08:55:25 -78.01,-155.29 111.08 08/27/2021 08:54:18 -78.01,-158.35 110.78 70.66 67
2 08/27/2021 09:46:17 78.30, 10.44 69.34 08/27/2021 09:45:09 78.27, 10.44 69.33 3.71 68
3 08/27/2021 10:37:01 -78.29, 177.81 110.67 08/27/2021 10:36:11 -78.28, 177.78 110.66 1.08 50
4 08/27/2021 11:27:46 78.30, -14.95 69.36 08/27/2021 11:27:09 78.28, -15.00 69.36 3.13 37
5 08/27/2021 12:18:30 -78.29, 152.43 110.64 08/27/2021 12:18:11 -78.29, 152.34 110.63 1.98 19
6 08/27/2021 13:09:15 78.31, -40.34 69.39 08/27/2021 13:09:09 78.29, -40.43 69.39 3.10 6
7 08/27/2021 13:59:59 -78.30, 127.04 110.61 08/27/2021 14:00:11 -78.30, 126.90 110.60 3.25 12
8 08/27/2021 14:50:44 78.31, -65.72 69.42 08/27/2021 14:51:08 78.33, -65.64 69.43 3.21 24
9 08/27/2021 15:41:29 -78.34, 101.43 110.53 08/27/2021 15:42:11 -78.31, 101.46 110.57 3.06 42
10 08/27/2021 16:32:13 78.31, -91.11 69.45 08/27/2021 16:33:08 78.34, -91.08 69.46 3.46 55
11 08/27/2021 17:22:58 -78.34, 76.05 110.50 08/27/2021 17:24:11 -78.32, 76.02 110.55 2.40 73



Historial Predications of SNOs between FY3D and NOAA-19
